Home   Weather   Gdynia   Past weeks

Flag for Poland Past Weather in Gdynia, Poland — Yesterday and Last 2 Weeks

Now
36 °F

Light rain. Low clouds.


Feels Like: 26 °F
Forecast: 41 / 44 °F
Wind: 15 mph from Southwest

Location: Gdansk-Rebiechowo

Current Time: Feb 26, 2017 at 6:43:09 am

Latest Report: Feb 26, 2017 at 6:00 am


Visibility: N/A

Pressure: 29.65 "Hg

Humidity: 93%

Dew Point: 34 °F

Location of GdyniaLocation

Past Weather in Gdynia — Graph

°F

Gdynia Temperature Yesterday

Maximum temperature yesterday: 39 °F (at 1:30 pm)
Minimum temperature yesterday: 28 °F (at 4:00 am)
Average temperature yesterday: 34 °F

High & Low Weather Summary for the Past Weeks

 TemperatureHumidityPressure
High48 °F (Feb 15, 1:30 pm)100% (Feb 13, 10:00 pm)30.72 "Hg (Feb 13, 10:00 pm)
Low12 °F (Feb 11, 5:00 am)48% (Feb 25, 1:30 pm)28.94 "Hg (Feb 23, 11:30 pm)
Average33 °F84%30.00 "Hg
* Reported Feb 11 5:00 am — Feb 26 5:30 am, Gdynia, Weather by CustomWeather, © 2017

Note: Actual official high and low records may vary slightly from our data, if they occured in-between our weather recording intervals... More about our weather records

Advertising

Gdynia Weather History for the Previous 24 Hours

Scroll right to see more
 ConditionsComfort  
Time TempWeatherWind HumidityBarometerVisibility
5:30 am
Sun, Feb 26
36 °FLight rain. Low clouds.17 mph93%29.65 "HgN/A
5:00 am36 °FLight rain. Low clouds.16 mph93%29.68 "HgN/A
4:30 am36 °FLight rain. Low clouds.16 mph93%29.68 "HgN/A
4:00 am36 °FLight rain. Low clouds.15 mph93%29.71 "HgN/A
3:30 am34 °FLight rain. Low clouds.14 mph93%29.71 "HgN/A
3:00 am34 °FLight rain. Mostly cloudy.15 mph93%29.74 "HgN/A
2:30 am34 °FLight rain. Passing clouds.14 mph93%29.74 "HgN/A
2:00 am34 °FLight snow. Passing clouds.14 mph93%29.77 "HgN/A
1:30 am34 °FLight snow. Partly cloudy.14 mph93%29.77 "Hg6 mi
1:00 am34 °FLight snow. Partly cloudy.15 mph93%29.80 "HgN/A
12:30 am34 °FPassing clouds.14 mph93%29.80 "HgN/A
12:00 am34 °FLight snow. Partly cloudy.14 mph93%29.83 "Hg5 mi
11:30 pm
Sat, Feb 25
34 °FLight snow. Fog.13 mph87%29.86 "Hg2 mi
11:00 pm34 °FLight snow. Fog.13 mph87%29.86 "Hg3 mi
10:30 pm34 °FLight snow. Partly cloudy.15 mph81%29.89 "Hg4 mi
10:00 pm36 °FPassing clouds.15 mph70%29.89 "HgN/A
9:30 pm36 °FPassing clouds.13 mph70%29.89 "HgN/A
9:00 pm36 °FPassing clouds.10 mph70%29.92 "HgN/A
8:30 pm34 °FClear.10 mph70%29.92 "Hg10 mi
8:00 pm34 °FClear.8 mph65%29.95 "Hg10 mi
7:30 pm34 °FClear.7 mph65%29.95 "Hg10 mi
7:00 pm34 °FClear.7 mph65%29.95 "Hg10 mi
6:30 pm34 °FClear.6 mph65%29.95 "Hg10 mi
6:00 pm34 °FClear.7 mph60%29.95 "Hg10 mi
5:30 pm34 °FClear.9 mph60%29.95 "Hg10 mi
5:00 pm36 °FSunny.13 mph56%29.98 "Hg10 mi
4:30 pm36 °FSunny.13 mph60%29.95 "Hg10 mi
4:00 pm37 °FPassing clouds.15 mph56%29.95 "HgN/A
3:30 pm37 °FPassing clouds.18 mph56%29.95 "HgN/A
3:00 pm37 °FPassing clouds.17 mph52%29.95 "HgN/A
2:30 pm39 °FPassing clouds.22 mph48%29.95 "HgN/A
2:00 pm37 °FScattered clouds.22 mph48%29.95 "HgN/A
1:30 pm39 °FPassing clouds.21 mph48%29.95 "HgN/A
1:00 pm37 °FPassing clouds.21 mph52%29.95 "HgN/A
12:30 pm37 °FPassing clouds.24 mph52%29.95 "HgN/A
12:00 pm37 °FScattered clouds.24 mph52%29.95 "HgN/A
11:30 am37 °FPassing clouds.22 mph56%29.92 "HgN/A
11:00 am37 °FPassing clouds.20 mph60%29.92 "HgN/A
10:30 am36 °FSunny.20 mph65%29.92 "Hg10 mi
10:00 am34 °FSunny.21 mph75%29.92 "Hg10 mi
9:30 am34 °FPassing clouds.21 mph75%29.89 "HgN/A
9:00 am34 °FPassing clouds.20 mph75%29.89 "HgN/A
8:30 am32 °FSunny.17 mph80%29.86 "Hg10 mi
8:00 am32 °FSunny.18 mph80%29.86 "Hg10 mi
7:30 am30 °FSunny.17 mph86%29.83 "Hg10 mi
7:00 am30 °FSunny.15 mph80%29.83 "Hg10 mi
6:30 am30 °FClear.14 mph80%29.80 "Hg10 mi
6:00 am30 °FPassing clouds.13 mph80%29.80 "HgN/A
Weather by CustomWeather, © 2017

See weather overviewHow to use our weather pages